Voltar ao catálogo

STARLINK-32894

AtivoComunicaçõesVLEO
NORAD 62969·PAYLOAD·🇺🇸 United States

Lançado Feb 11, 2025 de Vandenberg Space Force Base

Loading…

Próximas Passagens (próximas 24 horas)

TLE

AtualizadoSource: CelesTrak SupGP

Época: Sep 14, 2026, 21:12 UTC

1 62969C 25029X   26257.88381944  .00081896  00000+0  24206-2 0  2571
2 62969  53.1590  71.6187 0001303  94.5343 239.7912 15.34336669    12

Acompanhe STARLINK-32894 em tempo real com AllMySat

Download on the App Store